When you browse on this site, cookies collect data to enhance your experience and personalize the content and advertising you see.
Visit our Privacy Policy to learn more. By continuing to use the site, you agree to this use of cookies and data.
  • în România
  • Lista ţărilor
  • Pe 7 zile
  • Temperatura apei
  • Meteo pe hartă
  • Widget-uri
  • user-avatar
    Intrare

    Meteo pe oră la Innsbruck

    Astăzi, 26 Februarie, Miercuri

    Timp Temperatura Precipitaţii Vânt Presiune Umiditate
    00:00 -5°C° 0.6 mm 2 m/s 583 mmHg 95%
    01:00 -5°C° 0 mm 2 m/s 583 mmHg 94%
    02:00 -5°C° 1 mm 2 m/s 582 mmHg 94%
    03:00 -6°C° 1 mm 2 m/s 581 mmHg 95%
    04:00 -6°C° 1 mm 1 m/s 580 mmHg 95%
    05:00 -7°C° 0.8 mm 2 m/s 580 mmHg 95%
    06:00 -8°C° 0.8 mm 2 m/s 580 mmHg 94%
    07:00 -9°C° 0.8 mm 2 m/s 580 mmHg 94%
    08:00 -8°C° 0.2 mm 2 m/s 580 mmHg 85%
    09:00 -7°C° 0.2 mm 2 m/s 580 mmHg 76%
    10:00 -6°C° 0.2 mm 1 m/s 580 mmHg 66%
    11:00 -8°C° 0.1 mm 3 m/s 580 mmHg 66%
    12:00 -9°C° 0.1 mm 4 m/s 580 mmHg 66%
    13:00 -10°C° 0.1 mm 6 m/s 580 mmHg 67%
    14:00 -10°C° 0.1 mm 4 m/s 580 mmHg 66%
    15:00 -9°C° 0.1 mm 3 m/s 581 mmHg 66%
    16:00 -9°C° 0.1 mm 2 m/s 581 mmHg 66%
    17:00 -10°C° 0.6 mm 2 m/s 581 mmHg 75%
    18:00 -10°C° 0.6 mm 2 m/s 581 mmHg 84%
    19:00 -12°C° 0.6 mm 2 m/s 582 mmHg 93%
    20:00 -12°C° 0.5 mm 2 m/s 582 mmHg 94%
    21:00 -13°C° 0.5 mm 2 m/s 583 mmHg 94%
    22:00 -13°C° 0.5 mm 2 m/s 583 mmHg 94%
    23:00 -13°C° 0.3 mm 2 m/s 583 mmHg 94%

    Mâine, 27 Februarie, Joi

    Timp Temperatura Precipitaţii Vânt Presiune Umiditate
    00:00 -14°C° 0.3 mm 2 m/s 584 mmHg 94%
    01:00 -14°C° 0.3 mm 2 m/s 584 mmHg 94%
    02:00 -14°C° 0.1 mm 2 m/s 584 mmHg 93%
    03:00 -15°C° 0.1 mm 2 m/s 584 mmHg 93%
    04:00 -15°C° 0.1 mm 2 m/s 584 mmHg 93%
    05:00 -15°C° 0.1 mm 2 m/s 584 mmHg 91%
    06:00 -16°C° 0.1 mm 2 m/s 584 mmHg 89%
    07:00 -16°C° 0.1 mm 2 m/s 585 mmHg 88%
    08:00 -14°C° 0 mm 2 m/s 585 mmHg 81%
    09:00 -12°C° 0 mm 2 m/s 586 mmHg 73%
    10:00 -8°C° 0 mm 1 m/s 586 mmHg 66%
    11:00 -8°C° 0 mm 2 m/s 586 mmHg 65%
    12:00 -8°C° 0 mm 2 m/s 586 mmHg 63%
    13:00 -8°C° 0 mm 3 m/s 586 mmHg 61%
    14:00 -8°C° 0.1 mm 3 m/s 584 mmHg 64%
    15:00 -9°C° 0.1 mm 4 m/s 583 mmHg 67%
    16:00 -10°C° 0.1 mm 4 m/s 582 mmHg 69%
    17:00 -10°C° 0.5 mm 4 m/s 582 mmHg 74%
    18:00 -11°C° 0.5 mm 4 m/s 582 mmHg 79%
    19:00 -12°C° 0.5 mm 4 m/s 581 mmHg 84%
    20:00 -12°C° 0.1 mm 4 m/s 581 mmHg 84%
    21:00 -12°C° 0.1 mm 4 m/s 582 mmHg 84%
    22:00 -12°C° 0.1 mm 4 m/s 582 mmHg 84%
    23:00 -12°C° 0.4 mm 4 m/s 582 mmHg 87%

    Poimâine, 28 Februarie, Vineri

    Timp Temperatura Precipitaţii Vânt Presiune Umiditate
    00:00 -12°C° 0.4 mm 3 m/s 583 mmHg 89%
    01:00 -12°C° 0.4 mm 3 m/s 584 mmHg 91%
    02:00 -13°C° 0.3 mm 3 m/s 584 mmHg 92%
    03:00 -13°C° 0.3 mm 3 m/s 585 mmHg 92%
    04:00 -14°C° 0.3 mm 3 m/s 585 mmHg 92%
    05:00 -14°C° 0.3 mm 3 m/s 586 mmHg 92%
    06:00 -14°C° 0.3 mm 3 m/s 586 mmHg 93%
    07:00 -14°C° 0.3 mm 3 m/s 587 mmHg 93%
    08:00 -12°C° 0.1 mm 2 m/s 588 mmHg 88%
    09:00 -10°C° 0.1 mm 2 m/s 589 mmHg 83%
    10:00 -9°C° 0.1 mm 2 m/s 590 mmHg 78%
    11:00 -8°C° 0 mm 2 m/s 591 mmHg 74%
    12:00 -7°C° 0 mm 2 m/s 591 mmHg 70%
    13:00 -6°C° 0 mm 2 m/s 591 mmHg 66%
    14:00 -4°C° 0 mm 1 m/s 591 mmHg 65%
    15:00 -4°C° 0 mm 1 m/s 591 mmHg 65%
    16:00 -3°C° 0 mm 1 m/s 591 mmHg 64%
    17:00 -4°C° 0 mm 1 m/s 591 mmHg 66%
    18:00 -7°C° 0 mm 1 m/s 590 mmHg 69%
    19:00 -8°C° 0 mm 1 m/s 590 mmHg 71%
    20:00 -7°C° 0 mm 1 m/s 590 mmHg 74%
    21:00 -8°C° 0 mm 2 m/s 590 mmHg 78%
    22:00 -8°C° 0 mm 2 m/s 591 mmHg 81%
    23:00 -8°C° 0.1 mm 2 m/s 591 mmHg 82%

    29 Februarie, Sâmbătă

    Timp Temperatura Precipitaţii Vânt Presiune Umiditate
    00:00 -8°C° 0.1 mm 2 m/s 590 mmHg 82%
    01:00 -8°C° 0.1 mm 2 m/s 590 mmHg 82%
    02:00 -8°C° 0 mm 2 m/s 590 mmHg 81%
    03:00 -8°C° 0 mm 2 m/s 589 mmHg 79%
    04:00 -8°C° 0 mm 2 m/s 589 mmHg 77%
    05:00 -8°C° 0 mm 2 m/s 589 mmHg 76%
    06:00 -8°C° 0 mm 2 m/s 588 mmHg 74%
    07:00 -8°C° 0 mm 2 m/s 588 mmHg 73%
    08:00 -8°C° 0 mm 3 m/s 588 mmHg 75%
    09:00 -6°C° 0 mm 3 m/s 589 mmHg 77%
    10:00 -5°C° 0 mm 3 m/s 589 mmHg 78%
    11:00 -4°C° 0 mm 3 m/s 588 mmHg 80%
    12:00 -4°C° 0 mm 4 m/s 588 mmHg 81%
    13:00 -4°C° 0 mm 4 m/s 587 mmHg 82%
    14:00 -4°C° 0 mm 4 m/s 587 mmHg 82%
    15:00 -4°C° 0 mm 4 m/s 586 mmHg 81%
    16:00 -5°C° 0 mm 4 m/s 586 mmHg 80%
    17:00 -7°C° 0 mm 4 m/s 585 mmHg 81%
    18:00 -9°C° 0 mm 4 m/s 585 mmHg 82%
    19:00 -10°C° 0 mm 4 m/s 585 mmHg 83%
    20:00 -10°C° 0 mm 4 m/s 585 mmHg 84%
    21:00 -9°C° 0 mm 3 m/s 585 mmHg 84%
    22:00 -9°C° 0 mm 3 m/s 585 mmHg 84%
    23:00 -9°C° 0 mm 3 m/s 585 mmHg 85%

    1 Martie, Duminică

    Timp Temperatura Precipitaţii Vânt Presiune Umiditate
    00:00 -9°C° 0 mm 2 m/s 585 mmHg 86%
    01:00 -9°C° 0 mm 2 m/s 585 mmHg 87%
    02:00 -7°C° 0.2 mm 1 m/s 585 mmHg 90%
    03:00 -7°C° 0.2 mm 1 m/s 585 mmHg 92%
    04:00 -7°C° 0.2 mm 1 m/s 585 mmHg 94%
    05:00 -7°C° 0.5 mm 1 m/s 585 mmHg 95%
    06:00 -7°C° 0.5 mm 0 m/s 585 mmHg 96%
    07:00 -6°C° 0.5 mm 0 m/s 585 mmHg 97%
    08:00 -6°C° 0.8 mm 0 m/s 585 mmHg 96%
    09:00 -4°C° 0.8 mm 1 m/s 585 mmHg 96%
    10:00 -3°C° 0.8 mm 1 m/s 585 mmHg 95%
    11:00 -3°C° 0.5 mm 1 m/s 585 mmHg 95%
    12:00 -3°C° 0.5 mm 1 m/s 585 mmHg 95%
    13:00 -2°C° 0.5 mm 1 m/s 585 mmHg 95%
    14:00 -2°C° 0.1 mm 1 m/s 585 mmHg 93%
    15:00 -2°C° 0.1 mm 1 m/s 585 mmHg 91%
    16:00 -2°C° 0.1 mm 1 m/s 585 mmHg 89%
    17:00 -3°C° 0.1 mm 1 m/s 584 mmHg 92%
    18:00 -4°C° 0.1 mm 1 m/s 584 mmHg 94%
    19:00 -7°C° 0.1 mm 1 m/s 584 mmHg 96%
    20:00 -7°C° 0 mm 1 m/s 584 mmHg 95%
    21:00 -8°C° 0 mm 2 m/s 584 mmHg 93%
    22:00 -8°C° 0 mm 2 m/s 583 mmHg 91%
    23:00 -8°C° 0.1 mm 2 m/s 583 mmHg 91%

    2 Martie, Luni

    Timp Temperatura Precipitaţii Vânt Presiune Umiditate
    00:00 -8°C° 0.1 mm 2 m/s 583 mmHg 90%
    01:00 -7°C° 0.1 mm 2 m/s 583 mmHg 90%
    02:00 -7°C° 0.1 mm 2 m/s 583 mmHg 90%
    03:00 -8°C° 0.1 mm 3 m/s 583 mmHg 89%
    04:00 -8°C° 0.1 mm 3 m/s 584 mmHg 89%
    05:00 -8°C° 0.1 mm 2 m/s 584 mmHg 89%
    06:00 -8°C° 0.1 mm 2 m/s 584 mmHg 89%
    07:00 -9°C° 0.1 mm 2 m/s 584 mmHg 89%
    08:00 -7°C° 0 mm 2 m/s 584 mmHg 87%
    09:00 -6°C° 0 mm 2 m/s 585 mmHg 85%
    10:00 -4°C° 0 mm 2 m/s 585 mmHg 83%
    11:00 -3°C° 0 mm 2 m/s 585 mmHg 85%
    12:00 -4°C° 0 mm 3 m/s 585 mmHg 86%
    13:00 -2°C° 0 mm 3 m/s 584 mmHg 88%
    14:00 -2°C° 0 mm 3 m/s 584 mmHg 87%
    15:00 -4°C° 0 mm 3 m/s 583 mmHg 87%
    16:00 -4°C° 0 mm 3 m/s 583 mmHg 87%
    17:00 -5°C° 0.1 mm 3 m/s 582 mmHg 87%
    18:00 -6°C° 0.1 mm 3 m/s 582 mmHg 88%
    19:00 -7°C° 0.1 mm 3 m/s 581 mmHg 89%
    20:00 -6°C° 0.2 mm 2 m/s 581 mmHg 89%
    21:00 -6°C° 0.2 mm 2 m/s 581 mmHg 89%
    22:00 -6°C° 0.2 mm 2 m/s 582 mmHg 90%
    23:00 -6°C° 0.2 mm 2 m/s 581 mmHg 90%
    Arată mai mult